2020-061W (46292 NORAD) Tracking and Keplerian Element Data

This shows tracking and keplerian element data for the satellite.

Feedback or suggestion? Click here.




ElementValue
Catalog46292
Name2020-061W
Epoch Orbit315
Epoch Day268.28081698
Epoch Year2020
RAAN341.0261
Inclination97.5175
Eccentricity0.0002234
Argument of Perigee222.718
Mean Anonmoly137.3876
Mean Motion15.10200284
Decay Rate4.09E-06
L11 46292U 20061W 20268.28081698 .00000409 00000-0 28862-4 0 9995
L22 46292 97.5175 341.0261 0002234 222.7180 137.3876 15.10200284 3156

Live tracking and technical data element details for 2020-061W (NORAD 46292). 2020-061W can be tracked NOW for your location showing map with azimuth and elevation plus other details from your city location.

Track the satellite on the map from your city or location and see movement details for azimuth, elevation, latitude, longitude, range, height, and movement on the map or in text.







IsCatalogInMostPopularTable: catalog: 46292, numindb: 3
Update: records affected: 1



GetName: 46292 2020-061W

Hit Count: updated at: Mon, 28 Sep 2020 14:47:44 GMT